Location: Unspecified
(48.2082°N, 0.0000°E)
Time: 17:41:35
(UTC+00:00)

Altair - Pass Details

Date: 20 June 2019
Orbit: 1501 x 1683 km, 47.2° (Epoch: 24 August)

Event Time Altitude Azimuth Distance (km) Brightness Sun altitude
Rises 21:19:10 0° 244° (WSW) 4,727 10.2 -9.6°
Reaches altitude 10° 21:22:11 10° 243° (WSW) 3,767 9.7 -10.0°
Maximum altitude 21:31:45 73° 161° (SSE) 1,679 7.5 -10.9°
Drops below altitude 10° 21:41:42 10° 79° (E) 3,912 9.4 -11.8°
Sets 21:44:54 0° 78° (ENE) 4,916 9.9 -12.1°
